Ellensburg, WA
on Wednesday, January 9, 2013

Wednesday
Previous Day Next Day
Daily Summary
 ActualAverage (KYKM)Record (KYKM)
Temperature
Mean Temperature °F 30°F  
Max Temperature 41°F 37°F 59°F (1983)
Min Temperature 24°F 22°F -15°F (1974)
Degree Days
Heating Degree Days 32 35  
Month to date heating degree days 326  
Since 1 July heating degree days 2989  
Cooling Degree Days 0 0  
Month to date cooling degree days 0  
Year to date cooling degree days 0  
Moisture
Dew Point 25°F   
Average Humidity 73    
Maximum Humidity 93    
Minimum Humidity 60    
Precipitation
Precipitation 0.02 in 0.04 in 0.64 in (1995)
Month to date precipitation 0.39  
Year to date precipitation 0.39  
Snow
Snow 0.00 in 0.20 in 3.50 in (1968)
Month to date snowfall 2.1  
Year to date snowfall 2.1  
Since 1 July snowfall 15.1  
Snow Depth in   
Wind
Wind Speed 6 mph   
Max Wind Speed 23 mph   
Max Gust Speed mph   
Visibility 8 miles   
Events Rain   

Key: T is trace of precipitation, MM is missing value
Source: NWS Daily Summary
Time(PST)TemperatureDew PointHumidity Pressure Visibility Wind DirectionWind SpeedGust SpeedPrecipitationEvents Conditions
12:01 AM 28.4°F 26.6°F 93% 29.78 in 1.8 miles Calm Calm - N/A   Scattered Clouds
12:08 AM 28.4°F 24.8°F 86% 29.77 in 3.0 miles Calm Calm - N/A   Partly Cloudy
12:53 AM 28.0°F 23.0°F 81% 29.80 in 4.0 miles ENE 3.5 mph - N/A   Haze
1:45 AM 24.8°F 21.2°F 86% 29.75 in 1.8 miles WSW 3.5 mph - N/A   Partly Cloudy
1:53 AM 27.0°F 23.0°F 85% 29.79 in 2.0 miles North 6.9 mph - N/A   Partly Cloudy
2:01 AM 26.6°F 23.0°F 86% 29.76 in 5.0 miles Variable 5.8 mph - N/A   Partly Cloudy
2:53 AM 33.1°F 28.0°F 82% 29.77 in 9.0 miles ESE 4.6 mph - N/A   Clear
2:58 AM 30.2°F 24.8°F 80% 29.73 in 2.5 miles Calm Calm - N/A   Haze
3:04 AM 26.6°F 23.0°F 86% 29.74 in 1.0 miles Variable 3.5 mph - N/A   Mist
3:13 AM 30.2°F 24.8°F 80% 29.72 in 2.0 miles East 8.1 mph - N/A   Haze
3:21 AM 33.8°F 28.4°F 81% 29.72 in 10.0 miles Calm Calm - N/A   Partly Cloudy
3:53 AM 30.0°F 24.1°F 79% 29.77 in 10.0 miles ESE 3.5 mph - N/A   Clear
4:53 AM 39.9°F 30.0°F 68% 29.73 in 10.0 miles Variable 4.6 mph - N/A   Clear
5:53 AM 37.0°F 28.0°F 70% 29.69 in 10.0 miles East 5.8 mph - 0.01 in   Clear
6:53 AM 37.0°F 28.0°F 70% 29.67 in 10.0 miles ENE 4.6 mph - N/A   Clear
7:53 AM 36.0°F 27.0°F 70% 29.63 in 10.0 miles ENE 11.5 mph - N/A   Mostly Cloudy
9:53 AM 39.0°F 30.9°F 73% 29.66 in 9.0 miles NW 18.4 mph - 0.00 in Rain Light Rain
10:53 AM 39.9°F 30.9°F 70% 29.67 in 10.0 miles NNW 11.5 mph - 0.00 in   Overcast
11:53 AM 41.0°F 28.9°F 62% 29.66 in 10.0 miles NW 19.6 mph - 0.01 in   Partly Cloudy
12:53 PM 39.9°F 28.9°F 65% 29.68 in 10.0 miles NW 23.0 mph - N/A   Clear
2:53 PM 39.9°F 28.0°F 63% 29.72 in 10.0 miles NW 19.6 mph - N/A   Partly Cloudy
3:53 PM 39.9°F 27.0°F 60% 29.74 in 10.0 miles NW 20.7 mph - N/A   Clear
4:53 PM 37.9°F 26.1°F 62% 29.75 in 10.0 miles NNW 15.0 mph - N/A   Clear
5:53 PM 37.0°F 25.0°F 62% 29.79 in 10.0 miles NW 13.8 mph - N/A   Clear
6:53 PM 34.0°F 24.1°F 67% 29.81 in 10.0 miles NNW 8.1 mph - N/A   Clear
7:53 PM 34.0°F 23.0°F 64% 29.83 in 10.0 miles WNW 13.8 mph - N/A   Clear
8:53 PM 33.1°F 23.0°F 66% 29.84 in 10.0 miles NW 11.5 mph - N/A   Clear
9:53 PM 33.1°F 21.9°F 64% 29.85 in 10.0 miles NW 15.0 mph - N/A   Clear
10:53 PM 30.9°F 19.0°F 61% 29.86 in 10.0 miles WNW 10.4 mph - N/A   Clear
11:53 PM 30.0°F 19.9°F 66% 29.86 in 10.0 miles West 10.4 mph - N/A   Clear
Moon Phase
Jan. 09 Jan. 11 Jan. 18 Jan. 26 Feb. 03
Sunrise:07:46 AM (PST) Moon Rise:05:31 AM (PST)1/9
Sunset:04:32 PM (PST) Moon Set:02:39 PM (PST)1/9

Copyright © 2014 The Weather Underground, Inc.